Tracking 30923 objects as of 1-Jul-2025
HD Live streaming from Space Station
objects crossing your sky now

STARLINK-4575

Track STARLINK-4575 now!
10-day predictions
STARLINK-4575 is classified as:


NORAD ID: 53565
Int'l Code: 2022-101AQ
Perigee: 545.8 km
Apogee: 547.9 km
Inclination: 53.2 °
Period: 95.4 minutes
Semi major axis: 6917 km
RCS: Unknown
Launch date: August 19, 2022
Source: United States (US)
Launch site: AIR FORCE EASTERN TEST RANGE (AFETR)
Your satellite tracking list
STARLINK-3266
Track 1 satellite(s)




NASA's NSSDC Master Catalog

Two Line Element Set (TLE):
1 53565U 22101AQ  25181.18688767 -.00000916  00000-0 -39428-4 0  9996
2 53565  53.2176 107.8048 0001557  87.1726 272.9444 15.08848338158988
Source of the keplerian elements: AFSPC